owner,sensor,date,latitude,longitude,vertical_datum,direction_of_sea_water_velocity,sea_water_speed,upward_sea_water_velocity,qcFlag 
TABS,ioos:station:TABS:G:1,1998-01-01T00:00:00Z,29.5500,-93.4666,2.0,111.5550423,19.8695848,-99999.0,'11111222,11111222,99999999' 
TABS,ioos:station:TABS:G:1,1998-01-01T00:30:00Z,29.5500,-93.4666,2.0,106.0248439,17.82255032,-99999.0,'11111222,11111222,99999999' 
TABS,ioos:station:TABS:G:1,1998-01-01T01:00:00Z,29.5500,-93.4666,2.0,95.81382088,17.67089415,-99999.0,'11111222,11111222,99999999' 
TABS,ioos:station:TABS:G:1,1998-01-01T01:30:00Z,29.5500,-93.4666,2.0,119.7522052,19.22414367,-99999.0,'11111222,11111222,99999999' 
TABS,ioos:station:TABS:G:1,1998-01-01T02:00:00Z,29.5500,-93.4666,2.0,111.7955915,18.44883194,-99999.0,'11111222,11111222,99999999' 
TABS,ioos:station:TABS:G:1,1998-01-01T02:30:00Z,29.5500,-93.4666,2.0,105.3416204,19.16286252,-99999.0,'11111222,11111222,99999999' 
TABS,ioos:station:TABS:G:1,1998-01-01T03:00:00Z,29.5500,-93.4666,2.0,104.6050526,18.3220441,-99999.0,'11111222,11111222,99999999' 
TABS,ioos:station:TABS:G:1,1998-01-01T03:30:00Z,29.5500,-93.4666,2.0,104.5033478,17.84878987,-99999.0,'11111222,11111222,99999999' 
TABS,ioos:station:TABS:G:1,1998-01-01T04:00:00Z,29.5500,-93.4666,2.0,102.4293403,19.37408837,-99999.0,'11111222,11111222,99999999' 
TABS,ioos:station:TABS:G:1,1998-01-01T04:30:00Z,29.5500,-93.4666,2.0,109.7797212,18.05525408,-99999.0,'11111222,11111222,99999999' 
TABS,ioos:station:TABS:G:1,1998-01-01T05:00:00Z,29.5500,-93.4666,2.0,102.3501209,17.39248401,-99999.0,'11111222,11111222,99999999' 
TABS,ioos:station:TABS:G:1,1998-01-01T05:30:00Z,29.5500,-93.4666,2.0,107.7868647,17.05525432,-99999.0,'11111222,11111222,99999999' 
TABS,ioos:station:TABS:G:1,1998-01-01T06:00:00Z,29.5500,-93.4666,2.0,112.9392817,16.83103087,-99999.0,'11111222,11111222,99999999' 
TABS,ioos:station:TABS:G:1,1998-01-01T06:30:00Z,29.5500,-93.4666,2.0,116.0672263,14.92855318,-99999.0,'11111222,11111222,99999999' 
TABS,ioos:station:TABS:G:1,1998-01-01T07:00:00Z,29.5500,-93.4666,2.0,125.0622808,14.01297256,-99999.0,'11111222,11111222,99999999' 
TABS,ioos:station:TABS:G:1,1998-01-01T07:30:00Z,29.5500,-93.4666,2.0,126.2811782,14.60077053,-99999.0,'11111222,11111222,99999999' 
TABS,ioos:station:TABS:G:1,1998-01-01T08:00:00Z,29.5500,-93.4666,2.0,128.2489636,16.12066996,-99999.0,'11111222,11111222,99999999' 
TABS,ioos:station:TABS:G:1,1998-01-01T08:30:00Z,29.5500,-93.4666,2.0,117.0584647,15.05824027,-99999.0,'11111222,11111222,99999999' 
TABS,ioos:station:TABS:G:1,1998-01-01T09:00:00Z,29.5500,-93.4666,2.0,123.10744,16.36727528,-99999.0,'11111222,11111222,99999999' 
TABS,ioos:station:TABS:G:1,1998-01-01T09:30:00Z,29.5500,-93.4666,2.0,127.9213134,16.23873456,-99999.0,'11111222,11111222,99999999' 
TABS,ioos:station:TABS:G:1,1998-01-01T10:00:00Z,29.5500,-93.4666,2.0,124.9111873,17.43818798,-99999.0,'11111222,11111222,99999999' 
TABS,ioos:station:TABS:G:1,1998-01-01T10:30:00Z,29.5500,-93.4666,2.0,133.9385489,17.17857095,-99999.0,'11111222,11111222,99999999' 
TABS,ioos:station:TABS:G:1,1998-01-01T11:00:00Z,29.5500,-93.4666,2.0,141.3345529,16.21396003,-99999.0,'11111222,11111222,99999999' 
TABS,ioos:station:TABS:G:1,1998-01-01T11:30:00Z,29.5500,-93.4666,2.0,149.1236509,16.83603576,-99999.0,'11111222,11111222,99999999' 
TABS,ioos:station:TABS:G:1,1998-01-01T12:00:00Z,29.5500,-93.4666,2.0,149.1160671,15.97510876,-99999.0,'11111222,11111222,99999999' 
TABS,ioos:station:TABS:G:1,1998-01-01T12:30:00Z,29.5500,-93.4666,2.0,141.6633391,16.33135022,-99999.0,'11111222,11111222,99999999' 
TABS,ioos:station:TABS:G:1,1998-01-01T13:00:00Z,29.5500,-93.4666,2.0,139.5994342,17.01829897,-99999.0,'11111222,11111222,99999999' 
TABS,ioos:station:TABS:G:1,1998-01-01T13:30:00Z,29.5500,-93.4666,2.0,144.6958526,16.24806758,-99999.0,'11111222,11111222,99999999' 
TABS,ioos:station:TABS:G:1,1998-01-01T14:00:00Z,29.5500,-93.4666,2.0,136.067392,11.38639539,-99999.0,'11111222,11111222,99999999' 
TABS,ioos:station:TABS:G:1,1998-01-01T14:30:00Z,29.5500,-93.4666,2.0,149.5376106,17.63416003,-99999.0,'11111222,11111222,99999999' 
TABS,ioos:station:TABS:G:1,1998-01-01T15:00:00Z,29.5500,-93.4666,2.0,149.258542,13.69426522,-99999.0,'11111222,11111222,99999999' 
TABS,ioos:station:TABS:G:1,1998-01-01T15:30:00Z,29.5500,-93.4666,2.0,161.3638473,13.51882021,-99999.0,'11111222,11111222,99999999' 
TABS,ioos:station:TABS:G:1,1998-01-01T16:00:00Z,29.5500,-93.4666,2.0,169.27145,11.97939064,-99999.0,'11111222,11111222,99999999' 
TABS,ioos:station:TABS:G:1,1998-01-01T16:30:00Z,29.5500,-93.4666,2.0,160.5872373,13.90023381,-99999.0,'11111222,11111222,99999999' 
TABS,ioos:station:TABS:G:1,1998-01-01T17:00:00Z,29.5500,-93.4666,2.0,168.3265902,9.588310592,-99999.0,'11133222,11111222,99999999' 
TABS,ioos:station:TABS:G:1,1998-01-01T17:30:00Z,29.5500,-93.4666,2.0,174.6134048,11.07892143,-99999.0,'11111222,11111222,99999999' 
TABS,ioos:station:TABS:G:1,1998-01-01T18:00:00Z,29.5500,-93.4666,2.0,178.4613327,11.17402792,-99999.0,'11111222,11111222,99999999' 
TABS,ioos:station:TABS:G:1,1998-01-01T18:30:00Z,29.5500,-93.4666,2.0,160.2585992,12.34557816,-99999.0,'11111222,11111222,99999999' 
TABS,ioos:station:TABS:G:1,1998-01-01T19:00:00Z,29.5500,-93.4666,2.0,159.777323,12.06363544,-99999.0,'11111222,11111222,99999999' 
TABS,ioos:station:TABS:G:1,1998-01-01T19:30:00Z,29.5500,-93.4666,2.0,165.9635789,12.90532061,-99999.0,'11111222,11111222,99999999' 
TABS,ioos:station:TABS:G:1,1998-01-01T20:00:00Z,29.5500,-93.4666,2.0,154.8942464,10.53529781,-99999.0,'11111222,11111222,99999999' 
TABS,ioos:station:TABS:G:1,1998-01-01T20:30:00Z,29.5500,-93.4666,2.0,176.2596361,11.34416149,-99999.0,'11111222,11111222,99999999' 
TABS,ioos:station:TABS:G:1,1998-01-01T21:00:00Z,29.5500,-93.4666,2.0,166.960695,12.5434166,-99999.0,'11111222,11111222,99999999' 
TABS,ioos:station:TABS:G:1,1998-01-01T21:30:00Z,29.5500,-93.4666,2.0,156.6955852,12.81552964,-99999.0,'11111222,11111222,99999999' 
TABS,ioos:station:TABS:G:1,1998-01-01T22:00:00Z,29.5500,-93.4666,2.0,153.0300953,8.863994585,-99999.0,'11133222,11111222,99999999' 
TABS,ioos:station:TABS:G:1,1998-01-01T22:30:00Z,29.5500,-93.4666,2.0,154.1849461,5.465418557,-99999.0,'11133222,11111222,99999999' 
TABS,ioos:station:TABS:G:1,1998-01-01T23:00:00Z,29.5500,-93.4666,2.0,124.7289151,11.77822143,-99999.0,'11111222,11111222,99999999' 
TABS,ioos:station:TABS:G:1,1998-01-01T23:30:00Z,29.5500,-93.4666,2.0,118.6786318,12.7318891,-99999.0,'11111222,11111222,99999999' 
TABS,ioos:station:TABS:G:1,1998-01-02T00:00:00Z,29.5500,-93.4666,2.0,130.2680892,12.68630758,-99999.0,'11111222,11111222,99999999' 
TABS,ioos:station:TABS:G:1,1998-01-02T00:30:00Z,29.5500,-93.4666,2.0,137.135739,14.22980323,-99999.0,'11111222,11111222,99999999' 
TABS,ioos:station:TABS:G:1,1998-01-02T01:00:00Z,29.5500,-93.4666,2.0,140.5163194,16.40306374,-99999.0,'11111222,11111222,99999999' 
TABS,ioos:station:TABS:G:1,1998-01-02T01:30:00Z,29.5500,-93.4666,2.0,144.2438079,17.07922715,-99999.0,'11111222,11111222,99999999' 
TABS,ioos:station:TABS:G:1,1998-01-02T02:00:00Z,29.5500,-93.4666,2.0,136.4236856,17.07482943,-99999.0,'11111222,11111222,99999999' 
TABS,ioos:station:TABS:G:1,1998-01-02T02:30:00Z,29.5500,-93.4666,2.0,134.9998948,15.79676549,-99999.0,'11111222,11111222,99999999' 
TABS,ioos:station:TABS:G:1,1998-01-02T03:00:00Z,29.5500,-93.4666,2.0,143.4884962,18.53836293,-99999.0,'11111222,11111222,99999999' 
TABS,ioos:station:TABS:G:1,1998-01-02T03:30:00Z,29.5500,-93.4666,2.0,143.9476595,16.95772685,-99999.0,'11111222,11111222,99999999' 
TABS,ioos:station:TABS:G:1,1998-01-02T04:00:00Z,29.5500,-93.4666,2.0,137.4353872,14.97590732,-99999.0,'11111222,11111222,99999999' 
TABS,ioos:station:TABS:G:1,1998-01-02T04:30:00Z,29.5500,-93.4666,2.0,144.7757164,16.78292287,-99999.0,'11111222,11111222,99999999' 
TABS,ioos:station:TABS:G:1,1998-01-02T05:00:00Z,29.5500,-93.4666,2.0,134.9998948,16.22102956,-99999.0,'11111222,11111222,99999999' 
TABS,ioos:station:TABS:G:1,1998-01-02T05:30:00Z,29.5500,-93.4666,2.0,136.8132078,16.75975238,-99999.0,'11111222,11111222,99999999' 
TABS,ioos:station:TABS:G:1,1998-01-02T06:00:00Z,29.5500,-93.4666,2.0,143.2142936,17.66801913,-99999.0,'11111222,11111222,99999999' 
TABS,ioos:station:TABS:G:1,1998-01-02T06:30:00Z,29.5500,-93.4666,2.0,129.5853274,15.66158677,-99999.0,'11111222,11111222,99999999' 
TABS,ioos:station:TABS:G:1,1998-01-02T07:00:00Z,29.5500,-93.4666,2.0,137.3112535,15.60440002,-99999.0,'11111222,11111222,99999999' 
TABS,ioos:station:TABS:G:1,1998-01-02T07:30:00Z,29.5500,-93.4666,2.0,147.1311875,17.02549852,-99999.0,'11111222,11111222,99999999' 
TABS,ioos:station:TABS:G:1,1998-01-02T08:00:00Z,29.5500,-93.4666,2.0,144.0605314,16.74820886,-99999.0,'11111222,11111222,99999999' 
TABS,ioos:station:TABS:G:1,1998-01-02T08:30:00Z,29.5500,-93.4666,2.0,149.4847935,16.42492314,-99999.0,'11111222,11111222,99999999' 
TABS,ioos:station:TABS:G:1,1998-01-02T09:00:00Z,29.5500,-93.4666,2.0,350.4606851,17.07613832,-99999.0,'11111222,11111222,99999999' 
TABS,ioos:station:TABS:G:1,1998-01-02T09:30:00Z,29.5500,-93.4666,2.0,144.1358194,18.57086158,-99999.0,'11111222,11111222,99999999' 
TABS,ioos:station:TABS:G:1,1998-01-02T10:00:00Z,29.5500,-93.4666,2.0,131.9170146,17.61831433,-99999.0,'11111222,11111222,99999999' 
TABS,ioos:station:TABS:G:1,1998-01-02T10:30:00Z,29.5500,-93.4666,2.0,322.6033371,19.13280952,-99999.0,'11111222,11111222,99999999' 
TABS,ioos:station:TABS:G:1,1998-01-02T11:00:00Z,29.5500,-93.4666,2.0,137.8814718,16.87876773,-99999.0,'11111222,11111222,99999999' 
TABS,ioos:station:TABS:G:1,1998-01-02T11:30:00Z,29.5500,-93.4666,2.0,139.9657877,18.29789605,-99999.0,'11111222,11111222,99999999' 
TABS,ioos:station:TABS:G:1,1998-01-02T12:00:00Z,29.5500,-93.4666,2.0,133.4460491,15.38522993,-99999.0,'11111222,11111222,99999999' 
TABS,ioos:station:TABS:G:1,1998-01-02T12:30:00Z,29.5500,-93.4666,2.0,140.271849,16.08400759,-99999.0,'11111222,11111222,99999999' 
TABS,ioos:station:TABS:G:1,1998-01-02T13:00:00Z,29.5500,-93.4666,2.0,136.0002991,18.22491975,-99999.0,'11111222,11111222,99999999' 
TABS,ioos:station:TABS:G:1,1998-01-02T13:30:00Z,29.5500,-93.4666,2.0,147.9492699,18.80648824,-99999.0,'11111222,11111222,99999999' 
TABS,ioos:station:TABS:G:1,1998-01-02T14:00:00Z,29.5500,-93.4666,2.0,139.9657877,18.29789605,-99999.0,'11111222,11111222,99999999' 
TABS,ioos:station:TABS:G:1,1998-01-02T14:30:00Z,29.5500,-93.4666,2.0,141.3400717,19.08131023,-99999.0,'11111222,11111222,99999999' 
TABS,ioos:station:TABS:G:1,1998-01-02T15:00:00Z,29.5500,-93.4666,2.0,158.1010116,16.38206641,-99999.0,'11111222,11111222,99999999' 
TABS,ioos:station:TABS:G:1,1998-01-02T15:30:00Z,29.5500,-93.4666,2.0,300.2255828,19.82516835,-99999.0,'11111222,11111222,99999999' 
TABS,ioos:station:TABS:G:1,1998-01-02T16:00:00Z,29.5500,-93.4666,2.0,306.5496366,5.004078337,-99999.0,'11133222,11111222,99999999' 
TABS,ioos:station:TABS:G:1,1998-01-02T16:30:00Z,29.5500,-93.4666,2.0,165.4400158,15.39437884,-99999.0,'11111222,11111222,99999999' 
TABS,ioos:station:TABS:G:1,1998-01-02T17:00:00Z,29.5500,-93.4666,2.0,172.5815507,15.02576454,-99999.0,'11111222,11111222,99999999' 
TABS,ioos:station:TABS:G:1,1998-01-02T17:30:00Z,29.5500,-93.4666,2.0,168.4636581,14.9010201,-99999.0,'11111222,11111222,99999999' 
TABS,ioos:station:TABS:G:1,1998-01-02T18:00:00Z,29.5500,-93.4666,2.0,161.7902343,12.86424502,-99999.0,'11111222,11111222,99999999' 
TABS,ioos:station:TABS:G:1,1998-01-02T18:30:00Z,29.5500,-93.4666,2.0,169.0298906,14.87174838,-99999.0,'11111222,11111222,99999999' 
TABS,ioos:station:TABS:G:1,1998-01-02T19:00:00Z,29.5500,-93.4666,2.0,170.1760803,12.24961224,-99999.0,'11111222,11111222,99999999' 
TABS,ioos:station:TABS:G:1,1998-01-02T19:30:00Z,29.5500,-93.4666,2.0,167.7754328,12.65698621,-99999.0,'11111222,11111222,99999999' 
TABS,ioos:station:TABS:G:1,1998-01-02T20:00:00Z,29.5500,-93.4666,2.0,169.9307504,11.95412063,-99999.0,'11111222,11111222,99999999' 
TABS,ioos:station:TABS:G:1,1998-01-02T20:30:00Z,29.5500,-93.4666,2.0,178.5934686,12.22368193,-99999.0,'11111222,11111222,99999999' 
TABS,ioos:station:TABS:G:1,1998-01-02T21:00:00Z,29.5500,-93.4666,2.0,171.1298182,11.60883284,-99999.0,'11111222,11111222,99999999' 
TABS,ioos:station:TABS:G:1,1998-01-02T21:30:00Z,29.5500,-93.4666,2.0,165.4196884,11.24203273,-99999.0,'11111222,11111222,99999999' 
TABS,ioos:station:TABS:G:1,1998-01-02T22:00:00Z,29.5500,-93.4666,2.0,150.1803653,10.47722291,-99999.0,'11111222,11111222,99999999' 
TABS,ioos:station:TABS:G:1,1998-01-02T22:30:00Z,29.5500,-93.4666,2.0,139.2005072,10.03960159,-99999.0,'11111222,11111222,99999999' 
TABS,ioos:station:TABS:G:1,1998-01-02T23:00:00Z,29.5500,-93.4666,2.0,33.49797297,13.22690062,-99999.0,'11111222,11111222,99999999' 
TABS,ioos:station:TABS:G:1,1998-01-02T23:30:00Z,29.5500,-93.4666,2.0,86.28580051,13.7388573,-99999.0,'11111222,11111222,99999999' 
TABS,ioos:station:TABS:G:1,1998-01-03T00:00:00Z,29.5500,-93.4666,2.0,110.1475543,14.28406455,-99999.0,'11111222,11111222,99999999' 
TABS,ioos:station:TABS:G:1,1998-01-03T00:30:00Z,29.5500,-93.4666,2.0,8.401702049,17.31582513,-99999.0,'11111222,11111222,99999999' 
TABS,ioos:station:TABS:G:1,1998-01-03T01:00:00Z,29.5500,-93.4666,2.0,348.4876161,17.18576446,-99999.0,'11111222,11111222,99999999' 
TABS,ioos:station:TABS:G:1,1998-01-03T01:30:00Z,29.5500,-93.4666,2.0,302.4483844,22.77579417,-99999.0,'11111222,11111222,99999999' 
TABS,ioos:station:TABS:G:1,1998-01-03T02:00:00Z,29.5500,-93.4666,2.0,290.0564688,23.47349569,-99999.0,'11111222,11111222,99999999' 
TABS,ioos:station:TABS:G:1,1998-01-03T02:30:00Z,29.5500,-93.4666,2.0,294.6110562,23.6042475,-99999.0,'11111222,11111222,99999999' 
TABS,ioos:station:TABS:G:1,1998-01-03T03:00:00Z,29.5500,-93.4666,2.0,131.5944455,19.52233593,-99999.0,'11111222,11111222,99999999' 
TABS,ioos:station:TABS:G:1,1998-01-03T03:30:00Z,29.5500,-93.4666,2.0,141.9723449,19.10589961,-99999.0,'11111222,11111222,99999999' 
TABS,ioos:station:TABS:G:1,1998-01-03T04:00:00Z,29.5500,-93.4666,2.0,137.1350318,17.0814168,-99999.0,'11111222,11111222,99999999' 
TABS,ioos:station:TABS:G:1,1998-01-03T04:30:00Z,29.5500,-93.4666,2.0,291.9307944,24.74025263,-99999.0,'11111222,11111222,99999999' 
TABS,ioos:station:TABS:G:1,1998-01-03T05:00:00Z,29.5500,-93.4666,2.0,308.2521216,19.7377405,-99999.0,'11111222,11111222,99999999' 
TABS,ioos:station:TABS:G:1,1998-01-03T05:30:00Z,29.5500,-93.4666,2.0,146.5533247,18.92376812,-99999.0,'11111222,11111222,99999999' 
TABS,ioos:station:TABS:G:1,1998-01-03T06:00:00Z,29.5500,-93.4666,2.0,149.3355298,18.70560611,-99999.0,'11111222,11111222,99999999' 
TABS,ioos:station:TABS:G:1,1998-01-03T06:30:00Z,29.5500,-93.4666,2.0,151.6082856,18.80146803,-99999.0,'11111222,11111222,99999999' 
TABS,ioos:station:TABS:G:1,1998-01-03T07:00:00Z,29.5500,-93.4666,2.0,157.6853494,18.04102547,-99999.0,'11111222,11111222,99999999' 
TABS,ioos:station:TABS:G:1,1998-01-03T07:30:00Z,29.5500,-93.4666,2.0,164.1069957,17.96676933,-99999.0,'11111222,11111222,99999999' 
TABS,ioos:station:TABS:G:1,1998-01-03T08:00:00Z,29.5500,-93.4666,2.0,154.0590968,18.05955703,-99999.0,'11111222,11111222,99999999' 
TABS,ioos:station:TABS:G:1,1998-01-03T08:30:00Z,29.5500,-93.4666,2.0,164.610455,16.8439455,-99999.0,'11111222,11111222,99999999' 
TABS,ioos:station:TABS:G:1,1998-01-03T09:00:00Z,29.5500,-93.4666,2.0,168.3865254,17.03880864,-99999.0,'11111222,11111222,99999999' 
TABS,ioos:station:TABS:G:1,1998-01-03T09:30:00Z,29.5500,-93.4666,2.0,167.6496686,17.39248401,-99999.0,'11111222,11111222,99999999' 
TABS,ioos:station:TABS:G:1,1998-01-03T10:00:00Z,29.5500,-93.4666,2.0,165.1035472,16.80476123,-99999.0,'11111222,11111222,99999999' 
TABS,ioos:station:TABS:G:1,1998-01-03T10:30:00Z,29.5500,-93.4666,2.0,166.318273,17.63025241,-99999.0,'11111222,11111222,99999999' 
TABS,ioos:station:TABS:G:1,1998-01-03T11:00:00Z,29.5500,-93.4666,2.0,161.4140495,16.81705087,-99999.0,'11111222,11111222,99999999' 
TABS,ioos:station:TABS:G:1,1998-01-03T11:30:00Z,29.5500,-93.4666,2.0,169.5614803,17.27590808,-99999.0,'11111222,11111222,99999999' 
TABS,ioos:station:TABS:G:1,1998-01-03T12:00:00Z,29.5500,-93.4666,2.0,161.2584929,17.14927695,-99999.0,'11111222,11111222,99999999' 
TABS,ioos:station:TABS:G:1,1998-01-03T12:30:00Z,29.5500,-93.4666,2.0,158.9899379,17.87859614,-99999.0,'11111222,11111222,99999999' 
TABS,ioos:station:TABS:G:1,1998-01-03T13:00:00Z,29.5500,-93.4666,2.0,157.7729619,18.50505066,-99999.0,'11111222,11111222,99999999' 
TABS,ioos:station:TABS:G:1,1998-01-03T13:30:00Z,29.5500,-93.4666,2.0,157.9473362,18.64399099,-99999.0,'11111222,11111222,99999999' 
TABS,ioos:station:TABS:G:1,1998-01-03T14:00:00Z,29.5500,-93.4666,2.0,150.1086291,19.4239028,-99999.0,'11111222,11111222,99999999' 
TABS,ioos:station:TABS:G:1,1998-01-03T14:30:00Z,29.5500,-93.4666,2.0,146.0534277,19.21500716,-99999.0,'11111222,11111222,99999999' 
TABS,ioos:station:TABS:G:1,1998-01-03T15:00:00Z,29.5500,-93.4666,2.0,159.329312,18.15897024,-99999.0,'11111222,11111222,99999999' 
TABS,ioos:station:TABS:G:1,1998-01-03T15:30:00Z,29.5500,-93.4666,2.0,154.3843651,16.19135572,-99999.0,'11111222,11111222,99999999' 
TABS,ioos:station:TABS:G:1,1998-01-03T16:00:00Z,29.5500,-93.4666,2.0,161.7343971,17.10167243,-99999.0,'11111222,11111222,99999999' 
TABS,ioos:station:TABS:G:1,1998-01-03T16:30:00Z,29.5500,-93.4666,2.0,185.1387276,14.96013369,-99999.0,'11111222,11111222,99999999' 
TABS,ioos:station:TABS:G:1,1998-01-03T17:00:00Z,29.5500,-93.4666,2.0,170.810975,15.84331089,-99999.0,'11111222,11111222,99999999' 
TABS,ioos:station:TABS:G:1,1998-01-03T17:30:00Z,29.5500,-93.4666,2.0,169.453005,15.46120629,-99999.0,'11111222,11111222,99999999' 
TABS,ioos:station:TABS:G:1,1998-01-03T18:00:00Z,29.5500,-93.4666,2.0,170.810975,15.84331089,-99999.0,'11111222,11111222,99999999' 
TABS,ioos:station:TABS:G:1,1998-01-03T18:30:00Z,29.5500,-93.4666,2.0,165.9716567,17.20305205,-99999.0,'11111222,11111222,99999999' 
TABS,ioos:station:TABS:G:1,1998-01-03T19:00:00Z,29.5500,-93.4666,2.0,175.3680575,16.59419175,-99999.0,'11111222,11111222,99999999' 
TABS,ioos:station:TABS:G:1,1998-01-03T19:30:00Z,29.5500,-93.4666,2.0,181.7124381,15.05672607,-99999.0,'11111222,11111222,99999999' 
TABS,ioos:station:TABS:G:1,1998-01-03T20:00:00Z,29.5500,-93.4666,2.0,183.9528058,15.08589076,-99999.0,'11111222,11111222,99999999' 
TABS,ioos:station:TABS:G:1,1998-01-03T20:30:00Z,29.5500,-93.4666,2.0,183.9924732,14.9362512,-99999.0,'11111222,11111222,99999999' 
TABS,ioos:station:TABS:G:1,1998-01-03T21:00:00Z,29.5500,-93.4666,2.0,188.8633156,14.47283317,-99999.0,'11111222,11111222,99999999' 
TABS,ioos:station:TABS:G:1,1998-01-03T21:30:00Z,29.5500,-93.4666,2.0,188.7292643,15.68165808,-99999.0,'11111222,11111222,99999999' 
TABS,ioos:station:TABS:G:1,1998-01-03T22:00:00Z,29.5500,-93.4666,2.0,176.3356138,16.27326642,-99999.0,'11111222,11111222,99999999' 
TABS,ioos:station:TABS:G:1,1998-01-03T22:30:00Z,29.5500,-93.4666,2.0,173.2072439,22.65904676,-99999.0,'11111222,11111222,99999999' 
TABS,ioos:station:TABS:G:1,1998-01-03T23:00:00Z,29.5500,-93.4666,2.0,165.1812055,18.65030295,-99999.0,'11111222,11111222,99999999' 
TABS,ioos:station:TABS:G:1,1998-01-03T23:30:00Z,29.5500,-93.4666,2.0,169.7329036,17.56118732,-99999.0,'11111222,11111222,99999999' 
TABS,ioos:station:TABS:G:1,1998-01-04T00:00:00Z,29.5500,-93.4666,2.0,168.1502523,18.11605089,-99999.0,'11111222,11111222,99999999' 
TABS,ioos:station:TABS:G:1,1998-01-04T00:30:00Z,29.5500,-93.4666,2.0,170.3095441,18.59531661,-99999.0,'11111222,11111222,99999999' 
TABS,ioos:station:TABS:G:1,1998-01-04T01:00:00Z,29.5500,-93.4666,2.0,163.2690449,19.14024556,-99999.0,'11111222,11111222,99999999' 
TABS,ioos:station:TABS:G:1,1998-01-04T01:30:00Z,29.5500,-93.4666,2.0,159.7734146,18.10656511,-99999.0,'11111222,11111222,99999999' 
TABS,ioos:station:TABS:G:1,1998-01-04T02:00:00Z,29.5500,-93.4666,2.0,159.2061172,17.21104878,-99999.0,'11111222,11111222,99999999' 
TABS,ioos:station:TABS:G:1,1998-01-04T02:30:00Z,29.5500,-93.4666,2.0,157.6213322,19.17401627,-99999.0,'11111222,11111222,99999999' 
TABS,ioos:station:TABS:G:1,1998-01-04T03:00:00Z,29.5500,-93.4666,2.0,159.0986009,19.62113401,-99999.0,'11111222,11111222,99999999' 
TABS,ioos:station:TABS:G:1,1998-01-04T03:30:00Z,29.5500,-93.4666,2.0,152.630369,18.79376758,-99999.0,'11111222,11111222,99999999' 
TABS,ioos:station:TABS:G:1,1998-01-04T04:00:00Z,29.5500,-93.4666,2.0,150.7628505,18.61090272,-99999.0,'11111222,11111222,99999999' 
TABS,ioos:station:TABS:G:1,1998-01-04T04:30:00Z,29.5500,-93.4666,2.0,146.9895174,17.76829761,-99999.0,'11111222,11111222,99999999' 
TABS,ioos:station:TABS:G:1,1998-01-04T05:00:00Z,29.5500,-93.4666,2.0,141.2668536,18.33169114,-99999.0,'11111222,11111222,99999999' 
TABS,ioos:station:TABS:G:1,1998-01-04T05:30:00Z,29.5500,-93.4666,2.0,141.6197196,19.19866922,-99999.0,'11111222,11111222,99999999' 
TABS,ioos:station:TABS:G:1,1998-01-04T06:00:00Z,29.5500,-93.4666,2.0,153.4202879,17.65599332,-99999.0,'11111222,11111222,99999999' 
TABS,ioos:station:TABS:G:1,1998-01-04T06:30:00Z,29.5500,-93.4666,2.0,158.6397626,17.59886928,-99999.0,'11111222,11111222,99999999' 
TABS,ioos:station:TABS:G:1,1998-01-04T07:00:00Z,29.5500,-93.4666,2.0,146.2913124,17.19015998,-99999.0,'11111222,11111222,99999999' 
TABS,ioos:station:TABS:G:1,1998-01-04T07:30:00Z,29.5500,-93.4666,2.0,156.0406607,17.60711788,-99999.0,'11111222,11111222,99999999' 
TABS,ioos:station:TABS:G:1,1998-01-04T08:00:00Z,29.5500,-93.4666,2.0,159.0959712,17.54479125,-99999.0,'11111222,11111222,99999999' 
TABS,ioos:station:TABS:G:1,1998-01-04T08:30:00Z,29.5500,-93.4666,2.0,149.1994645,18.04515447,-99999.0,'11111222,11111222,99999999' 
TABS,ioos:station:TABS:G:1,1998-01-04T09:00:00Z,29.5500,-93.4666,2.0,163.8362893,16.59602362,-99999.0,'11111222,11111222,99999999' 
TABS,ioos:station:TABS:G:1,1998-01-04T09:30:00Z,29.5500,-93.4666,2.0,162.389385,16.26211548,-99999.0,'11111222,11111222,99999999' 
TABS,ioos:station:TABS:G:1,1998-01-04T10:00:00Z,29.5500,-93.4666,2.0,162.0442469,17.38681109,-99999.0,'11111222,11111222,99999999' 
TABS,ioos:station:TABS:G:1,1998-01-04T10:30:00Z,29.5500,-93.4666,2.0,151.5213679,15.93863545,-99999.0,'11111222,11111222,99999999' 
TABS,ioos:station:TABS:G:1,1998-01-04T11:00:00Z,29.5500,-93.4666,2.0,168.5813692,16.56792081,-99999.0,'11111222,11111222,99999999' 
TABS,ioos:station:TABS:G:1,1998-01-04T11:30:00Z,29.5500,-93.4666,2.0,180.4886484,17.58063992,-99999.0,'11111222,11111222,99999999' 
TABS,ioos:station:TABS:G:1,1998-01-04T12:00:00Z,29.5500,-93.4666,2.0,169.6949672,16.65870643,-99999.0,'11111222,11111222,99999999' 
TABS,ioos:station:TABS:G:1,1998-01-04T12:30:00Z,29.5500,-93.4666,2.0,158.8757588,19.00724599,-99999.0,'11111222,11111222,99999999' 
TABS,ioos:station:TABS:G:1,1998-01-04T13:00:00Z,29.5500,-93.4666,2.0,171.7376099,16.56189905,-99999.0,'11111222,11111222,99999999' 
TABS,ioos:station:TABS:G:1,1998-01-04T13:30:00Z,29.5500,-93.4666,2.0,159.329312,18.15897024,-99999.0,'11111222,11111222,99999999' 
TABS,ioos:station:TABS:G:1,1998-01-04T14:00:00Z,29.5500,-93.4666,2.0,159.7734146,18.10656511,-99999.0,'11111222,11111222,99999999' 
TABS,ioos:station:TABS:G:1,1998-01-04T14:30:00Z,29.5500,-93.4666,2.0,132.7703783,19.08511724,-99999.0,'11111222,11111222,99999999' 
TABS,ioos:station:TABS:G:1,1998-01-04T15:00:00Z,29.5500,-93.4666,2.0,151.2076834,18.87325356,-99999.0,'11111222,11111222,99999999' 
TABS,ioos:station:TABS:G:1,1998-01-04T15:30:00Z,29.5500,-93.4666,2.0,145.8160246,19.63156896,-99999.0,'11111222,11111222,99999999' 
TABS,ioos:station:TABS:G:1,1998-01-04T16:00:00Z,29.5500,-93.4666,2.0,147.7051117,18.67952087,-99999.0,'11111222,11111222,99999999' 
TABS,ioos:station:TABS:G:1,1998-01-04T16:30:00Z,29.5500,-93.4666,2.0,146.0631316,18.68247575,-99999.0,'11111222,11111222,99999999' 
TABS,ioos:station:TABS:G:1,1998-01-04T17:00:00Z,29.5500,-93.4666,2.0,150.1324123,18.5543984,-99999.0,'11111222,11111222,99999999' 
TABS,ioos:station:TABS:G:1,1998-01-04T17:30:00Z,29.5500,-93.4666,2.0,154.2361809,18.86531473,-99999.0,'11111222,11111222,99999999' 
TABS,ioos:station:TABS:G:1,1998-01-04T18:00:00Z,29.5500,-93.4666,2.0,150.0246208,17.89339543,-99999.0,'11111222,11111222,99999999' 